Private Wetterstation Wechselburg
Wetterdaten: Montag, 12.07.2010
Datum Zeit Temp. +2m Bodentemp. Temp.+5cm Temp. Wind Windchill X Diff Temp. Feuchte +2m Feuchte +5cm Sonnenschein Luftdruck Regen Wind Richtung Richtung Sonnenschein UV Taupunkt Windchill Windben
12.07.2010 00:00 24,4 C 24,9 C 34,3 C 23,0 C 20,2 C 0,0 C 68 % 34 % 0 % 1013,6 hPa 0,0 l/m 1,3 km/h (1 Bft) O-NO 67 0 min 0,3 UV-I 18,1 C 20,2 C 2,9 km/h (1 Bft)
12.07.2010 00:07 24,2 C 24,8 C 34,3 C 22,9 C 20,3 C 0,0 C 69 % 34 % 0 % 1013,6 hPa 0,0 l/m 0,8 km/h (0 Bft) N 0 0 min 0,3 UV-I 18,1 C 20,3 C 3,1 km/h (1 Bft)
12.07.2010 00:10 24,3 C 24,8 C 34,3 C 23,0 C 20,5 C 0,0 C 68 % 34 % 0 % 1013,6 hPa 0,0 l/m 1,8 km/h (1 Bft) O-NO 67 0 min 0,4 UV-I 18,0 C 20,5 C 0,0 km/h (0 Bft)
12.07.2010 00:15 24,3 C 24,8 C 34,3 C 23,0 C 20,5 C 0,0 C 68 % 34 % 0 % 1013,6 hPa 0,0 l/m 1,6 km/h (1 Bft) SW 225 0 min 0,6 UV-I 18,0 C 20,5 C 4,0 km/h (1 Bft)
12.07.2010 00:20 24,0 C 24,8 C 34,3 C 22,8 C 20,5 C 0,0 C 69 % 34 % 0 % 1013,5 hPa 0,0 l/m 1,4 km/h (1 Bft) O-NO 67 0 min 0,5 UV-I 18,0 C 20,5 C 0,0 km/h (0 Bft)
12.07.2010 00:25 24,3 C 24,8 C 34,3 C 23,0 C 20,5 C 0,0 C 69 % 34 % 0 % 1013,5 hPa 0,0 l/m 1,6 km/h (1 Bft) W-NW 292 0 min 0,6 UV-I 18,2 C 20,5 C 4,3 km/h (1 Bft)
12.07.2010 00:30 23,9 C 24,7 C 34,3 C 22,7 C 20,4 C 0,0 C 69 % 34 % 0 % 1013,5 hPa 0,0 l/m 1,1 km/h (1 Bft) NO 45 0 min 0,5 UV-I 17,9 C 20,4 C 0,0 km/h (0 Bft)
12.07.2010 00:35 24,0 C 24,7 C 34,3 C 22,8 C 20,4 C 0,0 C 69 % 34 % 0 % 1013,5 hPa 0,0 l/m 1,1 km/h (1 Bft) S 180 0 min 0,6 UV-I 18,0 C 20,4 C 0,0 km/h (0 Bft)
12.07.2010 00:40 23,7 C 24,7 C 34,3 C 22,6 C 20,3 C 0,0 C 69 % 34 % 0 % 1013,3 hPa 0,0 l/m 1,6 km/h (1 Bft) O-NO 67 0 min 0,5 UV-I 17,7 C 20,3 C 2,1 km/h (1 Bft)
12.07.2010 00:45 23,6 C 24,7 C 34,3 C 22,5 C 20,3 C 0,0 C 71 % 34 % 0 % 1013,3 hPa 0,0 l/m 1,3 km/h (1 Bft) O-NO 67 0 min 0,6 UV-I 18,0 C 20,3 C 0,0 km/h (0 Bft)
12.07.2010 00:50 23,9 C 24,7 C 34,3 C 22,6 C 20,1 C 0,0 C 70 % 34 % 0 % 1013,3 hPa 0,0 l/m 0,3 km/h (0 Bft) W-SW 247 0 min 0,5 UV-I 18,1 C 20,1 C 2,3 km/h (1 Bft)
12.07.2010 00:55 23,8 C 24,7 C 34,3 C 22,5 C 20,0 C 0,0 C 70 % 34 % 0 % 1013,3 hPa 0,0 l/m 0,5 km/h (0 Bft) SW 225 0 min 0,5 UV-I 18,0 C 20,0 C 1,6 km/h (1 Bft)
12.07.2010 01:00 23,7 C 24,6 C 34,3 C 22,3 C 19,6 C 0,0 C 70 % 34 % 0 % 1013,4 hPa 0,0 l/m 0,5 km/h (0 Bft) SW 225 0 min 0,4 UV-I 17,9 C 19,6 C 0,0 km/h (0 Bft)
12.07.2010 01:06 23,4 C 24,6 C 34,3 C 22,1 C 19,5 C 0,0 C 70 % 34 % 0 % 1013,4 hPa 0,0 l/m 0,2 km/h (0 Bft) N 0 0 min 0,4 UV-I 17,6 C 19,5 C 1,8 km/h (1 Bft)
12.07.2010 01:10 23,3 C 24,6 C 34,3 C 22,0 C 19,5 C 0,0 C 71 % 34 % 0 % 1013,4 hPa 0,0 l/m 0,2 km/h (0 Bft) SW 225 0 min 0,4 UV-I 17,7 C 19,5 C 0,0 km/h (0 Bft)
12.07.2010 01:15 23,3 C 24,6 C 34,3 C 22,0 C 19,3 C 0,0 C 72 % 34 % 0 % 1013,4 hPa 0,0 l/m 0,2 km/h (0 Bft) SW 225 0 min 0,4 UV-I 18,0 C 19,3 C 1,6 km/h (1 Bft)
12.07.2010 01:20 23,5 C 24,6 C 34,3 C 22,1 C 19,3 C 0,0 C 72 % 34 % 0 % 1013,2 hPa 0,0 l/m 0,8 km/h (0 Bft) W-SW 247 0 min 0,5 UV-I 18,2 C 19,3 C 0,0 km/h (0 Bft)
12.07.2010 01:25 23,4 C 24,6 C 34,3 C 22,0 C 19,1 C 0,0 C 71 % 34 % 0 % 1013,2 hPa 0,0 l/m 0,8 km/h (0 Bft) W-SW 247 0 min 0,5 UV-I 17,8 C 19,1 C 0,0 km/h (0 Bft)
12.07.2010 01:30 23,1 C 24,6 C 34,3 C 21,7 C 18,9 C 0,0 C 72 % 34 % 0 % 1013,2 hPa 0,0 l/m 0,0 km/h (0 Bft) W-SW 247 0 min 0,5 UV-I 17,8 C 18,9 C 0,0 km/h (0 Bft)
12.07.2010 01:35 23,0 C 24,5 C 34,3 C 21,6 C 18,9 C 0,0 C 73 % 34 % 0 % 1013,2 hPa 0,0 l/m 0,0 km/h (0 Bft) W-SW 247 0 min 0,5 UV-I 17,9 C 18,9 C 1,9 km/h (1 Bft)
12.07.2010 01:40 23,1 C 24,5 C 34,3 C 21,7 C 18,8 C 0,0 C 73 % 34 % 0 % 1013,3 hPa 0,0 l/m 0,5 km/h (0 Bft) SW 225 0 min 0,5 UV-I 18,0 C 18,8 C 0,0 km/h (0 Bft)
12.07.2010 01:45 23,0 C 24,5 C 34,3 C 21,6 C 18,7 C 0,0 C 73 % 34 % 0 % 1013,3 hPa 0,0 l/m 0,6 km/h (0 Bft) SW 225 0 min 0,6 UV-I 17,9 C 18,7 C 0,0 km/h (0 Bft)
12.07.2010 01:50 22,9 C 24,6 C 34,3 C 21,4 C 18,5 C 0,0 C 72 % 34 % 0 % 1013,3 hPa 0,0 l/m 0,2 km/h (0 Bft) S-SW 202 0 min 0,6 UV-I 17,6 C 18,5 C 0,0 km/h (0 Bft)
12.07.2010 01:55 22,7 C 24,6 C 34,3 C 21,3 C 18,5 C 0,0 C 73 % 34 % 0 % 1013,3 hPa 0,0 l/m 0,2 km/h (0 Bft) S-SW 202 0 min 0,6 UV-I 17,6 C 18,5 C 1,8 km/h (1 Bft)
12.07.2010 02:00 22,7 C 24,5 C 34,3 C 21,3 C 18,5 C 0,0 C 72 % 34 % 0 % 1013,1 hPa 0,0 l/m 0,2 km/h (0 Bft) SW 225 0 min 0,6 UV-I 17,4 C 18,5 C 0,0 km/h (0 Bft)
12.07.2010 02:06 22,7 C 24,5 C 34,3 C 21,3 C 18,5 C 0,0 C 72 % 34 % 0 % 1013,1 hPa 0,0 l/m 0,2 km/h (0 Bft) N 0 0 min 0,6 UV-I 17,4 C 18,5 C 0,0 km/h (0 Bft)
12.07.2010 02:10 22,4 C 24,5 C 34,3 C 21,1 C 18,5 C 0,0 C 72 % 34 % 0 % 1013,1 hPa 0,0 l/m 0,0 km/h (0 Bft) W 270 0 min 0,5 UV-I 17,1 C 18,5 C 0,0 km/h (0 Bft)
12.07.2010 02:15 22,3 C 24,5 C 34,3 C 21,0 C 18,4 C 0,0 C 73 % 34 % 0 % 1013,1 hPa 0,0 l/m 0,0 km/h (0 Bft) W 270 0 min 0,5 UV-I 17,2 C 18,4 C 0,0 km/h (0 Bft)
12.07.2010 02:20 22,3 C 24,4 C 34,3 C 21,0 C 18,4 C 0,0 C 73 % 34 % 0 % 1013,1 hPa 0,0 l/m 0,3 km/h (0 Bft) SW 225 0 min 0,5 UV-I 17,2 C 18,4 C 2,3 km/h (1 Bft)
12.07.2010 02:25 22,4 C 24,4 C 34,3 C 21,0 C 18,3 C 0,0 C 73 % 34 % 0 % 1013,1 hPa 0,0 l/m 0,8 km/h (0 Bft) W-SW 247 0 min 0,4 UV-I 17,3 C 18,3 C 0,0 km/h (0 Bft)
12.07.2010 02:30 22,2 C 24,4 C 34,3 C 20,9 C 18,2 C 0,0 C 73 % 34 % 0 % 1013,1 hPa 0,0 l/m 0,6 km/h (0 Bft) W-SW 247 0 min 0,4 UV-I 17,1 C 18,2 C 0,0 km/h (0 Bft)
12.07.2010 02:35 22,0 C 24,4 C 34,3 C 20,7 C 18,2 C 0,0 C 73 % 34 % 0 % 1013,1 hPa 0,0 l/m 0,2 km/h (0 Bft) W-SW 247 0 min 0,4 UV-I 16,9 C 18,2 C 3,1 km/h (1 Bft)
12.07.2010 02:40 22,1 C 24,4 C 34,3 C 20,8 C 18,2 C 0,0 C 74 % 34 % 0 % 1013,1 hPa 0,0 l/m 1,0 km/h (0 Bft) S 180 0 min 0,5 UV-I 17,2 C 18,2 C 0,0 km/h (0 Bft)
12.07.2010 02:45 22,1 C 24,4 C 34,3 C 20,7 C 18,0 C 0,0 C 73 % 34 % 0 % 1013,1 hPa 0,0 l/m 0,8 km/h (0 Bft) SW 225 0 min 0,5 UV-I 17,0 C 18,0 C 0,0 km/h (0 Bft)
12.07.2010 02:50 21,7 C 24,3 C 34,3 C 20,4 C 17,9 C 0,0 C 74 % 34 % 0 % 1013,1 hPa 0,0 l/m 0,2 km/h (0 Bft) O-NO 67 0 min 0,5 UV-I 16,9 C 17,9 C 0,0 km/h (0 Bft)
12.07.2010 02:55 21,8 C 24,3 C 34,3 C 20,5 C 17,8 C 0,0 C 75 % 34 % 0 % 1013,1 hPa 0,0 l/m 0,3 km/h (0 Bft) SW 225 0 min 0,4 UV-I 17,2 C 17,8 C 2,3 km/h (1 Bft)
12.07.2010 03:00 21,9 C 24,3 C 34,3 C 20,5 C 17,8 C 0,0 C 74 % 34 % 0 % 1013,0 hPa 0,0 l/m 0,5 km/h (0 Bft) S 180 0 min 0,4 UV-I 17,0 C 17,8 C 0,0 km/h (0 Bft)
12.07.2010 03:06 21,9 C 24,3 C 34,3 C 20,5 C 17,7 C 0,0 C 74 % 34 % 0 % 1013,0 hPa 0,0 l/m 0,5 km/h (0 Bft) N 0 0 min 0,4 UV-I 17,0 C 17,7 C 0,0 km/h (0 Bft)
12.07.2010 03:10 21,8 C 24,3 C 34,3 C 20,4 C 17,5 C 0,0 C 74 % 34 % 0 % 1013,0 hPa 0,0 l/m 0,2 km/h (0 Bft) SW 225 0 min 0,4 UV-I 17,0 C 17,5 C 0,0 km/h (0 Bft)
12.07.2010 03:15 21,6 C 24,2 C 34,3 C 20,2 C 17,5 C 0,0 C 73 % 34 % 0 % 1013,0 hPa 0,0 l/m 0,0 km/h (0 Bft) SW 225 0 min 0,5 UV-I 16,5 C 17,5 C 0,0 km/h (0 Bft)
12.07.2010 03:20 21,5 C 24,2 C 34,3 C 20,2 C 17,6 C 0,0 C 74 % 34 % 0 % 1012,9 hPa 0,0 l/m 0,0 km/h (0 Bft) SW 225 0 min 0,5 UV-I 16,7 C 17,6 C 0,0 km/h (0 Bft)
12.07.2010 03:25 21,5 C 24,2 C 34,3 C 20,2 C 17,6 C 0,0 C 75 % 34 % 0 % 1012,9 hPa 0,0 l/m 0,0 km/h (0 Bft) SW 225 0 min 0,5 UV-I 16,9 C 17,6 C 0,0 km/h (0 Bft)
12.07.2010 03:30 21,7 C 24,2 C 34,3 C 20,3 C 17,5 C 0,0 C 75 % 34 % 0 % 1012,9 hPa 0,0 l/m 0,0 km/h (0 Bft) SW 225 0 min 0,5 UV-I 17,1 C 17,5 C 0,0 km/h (0 Bft)
12.07.2010 03:35 21,7 C 24,2 C 34,3 C 20,3 C 17,5 C 0,0 C 75 % 34 % 0 % 1012,9 hPa 0,0 l/m 0,0 km/h (0 Bft) SW 225 0 min 0,5 UV-I 17,1 C 17,5 C 0,0 km/h (0 Bft)
12.07.2010 03:40 21,6 C 24,2 C 34,3 C 20,2 C 17,4 C 0,0 C 75 % 34 % 0 % 1012,8 hPa 0,0 l/m 0,5 km/h (0 Bft) SW 225 0 min 0,6 UV-I 17,0 C 17,4 C 2,3 km/h (1 Bft)
12.07.2010 03:45 21,7 C 24,2 C 34,3 C 20,2 C 17,3 C 0,0 C 76 % 34 % 0 % 1012,8 hPa 0,0 l/m 0,6 km/h (0 Bft) SW 225 0 min 0,7 UV-I 17,3 C 17,3 C 0,0 km/h (0 Bft)
12.07.2010 03:50 21,6 C 24,2 C 34,3 C 20,2 C 17,3 C 0,0 C 76 % 34 % 0 % 1012,8 hPa 0,0 l/m 0,8 km/h (0 Bft) W-SW 247 0 min 0,8 UV-I 17,2 C 17,3 C 1,8 km/h (1 Bft)
12.07.2010 03:55 21,5 C 24,2 C 34,3 C 20,1 C 17,2 C 0,0 C 75 % 34 % 0 % 1012,8 hPa 0,0 l/m 0,8 km/h (0 Bft) S 180 0 min 0,9 UV-I 16,9 C 17,2 C 0,0 km/h (0 Bft)
12.07.2010 04:00 20,8 C 24,2 C 34,3 C 19,6 C 17,2 C 0,0 C 76 % 34 % 0 % 1012,8 hPa 0,0 l/m 1,6 km/h (1 Bft) O-NO 67 0 min 0,9 UV-I 16,4 C 17,2 C 1,9 km/h (1 Bft)
12.07.2010 04:06 20,8 C 24,2 C 34,3 C 19,6 C 17,3 C 0,0 C 77 % 34 % 0 % 1012,8 hPa 0,0 l/m 1,0 km/h (0 Bft) N 0 0 min 1,0 UV-I 16,6 C 17,3 C 0,0 km/h (0 Bft)
12.07.2010 04:10 20,7 C 24,2 C 34,3 C 19,6 C 17,3 C 0,0 C 77 % 34 % 0 % 1012,8 hPa 0,0 l/m 0,2 km/h (0 Bft) O-NO 67 0 min 0,9 UV-I 16,5 C 17,3 C 0,0 km/h (0 Bft)
12.07.2010 04:15 20,7 C 24,1 C 34,3 C 19,5 C 17,2 C 0,0 C 77 % 34 % 0 % 1012,8 hPa 0,0 l/m 0,6 km/h (0 Bft) SW 225 0 min 0,9 UV-I 16,5 C 17,2 C 2,7 km/h (1 Bft)
12.07.2010 04:20 20,8 C 24,1 C 34,3 C 19,5 C 17,0 C 0,0 C 76 % 34 % 0 % 1012,8 hPa 0,0 l/m 1,0 km/h (0 Bft) S 180 0 min 0,8 UV-I 16,4 C 17,0 C 0,0 km/h (0 Bft)
12.07.2010 04:25 20,8 C 24,1 C 34,3 C 19,5 C 16,9 C 0,0 C 76 % 34 % 0 % 1012,8 hPa 0,0 l/m 1,1 km/h (1 Bft) S 180 0 min 0,7 UV-I 16,4 C 16,9 C 2,1 km/h (1 Bft)
12.07.2010 04:30 20,7 C 24,1 C 34,3 C 19,4 C 16,7 C 0,0 C 75 % 34 % 0 % 1012,8 hPa 0,0 l/m 0,6 km/h (0 Bft) S 180 0 min 0,8 UV-I 16,1 C 16,7 C 0,0 km/h (0 Bft)
12.07.2010 04:35 20,5 C 24,1 C 34,3 C 19,2 C 16,6 C 0,0 C 76 % 34 % 0 % 1012,8 hPa 0,0 l/m 0,3 km/h (0 Bft) S 180 0 min 0,8 UV-I 16,1 C 16,6 C 0,0 km/h (0 Bft)
12.07.2010 04:40 20,4 C 24,0 C 34,3 C 19,1 C 16,6 C 0,0 C 77 % 34 % 0 % 1012,8 hPa 0,0 l/m 0,2 km/h (0 Bft) SW 225 0 min 0,9 UV-I 16,2 C 16,6 C 0,0 km/h (0 Bft)
12.07.2010 04:45 20,5 C 24,0 C 34,3 C 19,2 C 16,6 C 0,0 C 76 % 34 % 0 % 1012,8 hPa 0,0 l/m 0,2 km/h (0 Bft) O-SO 112 0 min 1,0 UV-I 16,1 C 16,6 C 0,0 km/h (0 Bft)
12.07.2010 04:50 20,3 C 24,0 C 34,3 C 19,1 C 16,7 C 0,0 C 76 % 34 % 0 % 1012,8 hPa 0,0 l/m 0,5 km/h (0 Bft) O-NO 67 0 min 1,0 UV-I 15,9 C 16,7 C 0,0 km/h (0 Bft)
12.07.2010 04:55 20,1 C 23,9 C 34,3 C 19,0 C 16,8 C 0,0 C 77 % 34 % 0 % 1012,8 hPa 0,0 l/m 0,3 km/h (0 Bft) O-NO 67 0 min 1,1 UV-I 15,9 C 16,8 C 0,0 km/h (0 Bft)
12.07.2010 05:00 20,3 C 23,9 C 34,3 C 19,1 C 16,7 C 0,0 C 77 % 34 % 0 % 1012,9 hPa 0,0 l/m 0,6 km/h (0 Bft) SW 225 0 min 0,9 UV-I 16,1 C 16,7 C 3,7 km/h (1 Bft)
12.07.2010 05:06 20,4 C 23,9 C 34,3 C 19,1 C 16,6 C 0,0 C 77 % 34 % 0 % 1012,9 hPa 0,0 l/m 1,0 km/h (0 Bft) N 0 0 min 0,8 UV-I 16,2 C 16,6 C 0,0 km/h (0 Bft)
12.07.2010 05:10 20,3 C 23,9 C 18,0 C 19,0 C 16,5 C 0,0 C 77 % 86 % 0 % 1012,9 hPa 0,0 l/m 0,6 km/h (0 Bft) S-SW 202 0 min 0,8 UV-I 16,1 C 16,5 C 0,0 km/h (0 Bft)
12.07.2010 05:15 20,2 C 23,9 C 18,2 C 19,0 C 16,5 C 0,0 C 78 % 87 % 0 % 1012,9 hPa 0,0 l/m 0,0 km/h (0 Bft) S-SW 202 0 min 0,9 UV-I 16,2 C 16,5 C 1,6 km/h (1 Bft)
12.07.2010 05:20 20,3 C 23,9 C 18,1 C 19,0 C 16,5 C 0,0 C 77 % 87 % 0 % 1012,8 hPa 0,0 l/m 0,0 km/h (0 Bft) S-SW 202 0 min 1,0 UV-I 16,1 C 16,5 C 0,0 km/h (0 Bft)
12.07.2010 05:25 20,1 C 23,9 C 18,1 C 18,9 C 16,6 C 0,0 C 77 % 87 % 0 % 1012,8 hPa 0,0 l/m 0,3 km/h (0 Bft) O-NO 67 0 min 1,1 UV-I 15,9 C 16,6 C 0,0 km/h (0 Bft)
12.07.2010 05:30 20,0 C 23,8 C 18,1 C 18,9 C 16,7 C 0,0 C 77 % 87 % 0 % 1012,8 hPa 0,0 l/m 0,2 km/h (0 Bft) O-NO 67 0 min 1,1 UV-I 15,8 C 16,7 C 0,0 km/h (0 Bft)
12.07.2010 05:35 20,3 C 23,8 C 18,1 C 19,1 C 16,7 C 0,0 C 77 % 87 % 0 % 1012,8 hPa 0,0 l/m 0,3 km/h (0 Bft) W-SW 247 0 min 1,0 UV-I 16,1 C 16,7 C 0,0 km/h (0 Bft)
12.07.2010 05:40 20,3 C 23,8 C 18,1 C 19,1 C 16,7 C 0,0 C 77 % 87 % 0 % 1013,2 hPa 0,0 l/m 0,3 km/h (0 Bft) W-SW 247 0 min 1,0 UV-I 16,1 C 16,7 C 0,0 km/h (0 Bft)
12.07.2010 05:45 20,4 C 23,7 C 18,1 C 19,2 C 16,7 C 0,0 C 77 % 87 % 0 % 1013,2 hPa 0,0 l/m 0,0 km/h (0 Bft) W-SW 247 0 min 1,1 UV-I 16,2 C 16,7 C 0,0 km/h (0 Bft)
12.07.2010 05:50 20,3 C 23,7 C 18,1 C 19,1 C 16,8 C 0,0 C 77 % 87 % 0 % 1013,2 hPa 0,0 l/m 0,0 km/h (0 Bft) W-SW 247 0 min 1,1 UV-I 16,1 C 16,8 C 0,0 km/h (0 Bft)
12.07.2010 05:55 20,2 C 23,7 C 18,1 C 19,1 C 16,9 C 0,0 C 77 % 87 % 0 % 1013,2 hPa 0,0 l/m 0,3 km/h (0 Bft) W-SW 247 0 min 1,1 UV-I 16,0 C 16,9 C 1,8 km/h (1 Bft)
12.07.2010 06:00 20,5 C 23,7 C 18,1 C 19,3 C 17,0 C 0,0 C 77 % 87 % 0 % 1013,1 hPa 0,0 l/m 1,4 km/h (1 Bft) SW 225 0 min 1,2 UV-I 16,3 C 17,0 C 2,4 km/h (1 Bft)
12.07.2010 06:06 20,4 C 23,7 C 18,1 C 19,3 C 17,0 C 0,0 C 77 % 87 % 0 % 1013,1 hPa 0,0 l/m 1,4 km/h (1 Bft) N 0 0 min 1,2 UV-I 16,2 C 17,0 C 0,0 km/h (0 Bft)
12.07.2010 06:10 20,3 C 23,7 C 18,1 C 19,2 C 17,0 C 0,0 C 77 % 87 % 0 % 1013,1 hPa 0,0 l/m 0,2 km/h (0 Bft) SW 225 0 min 1,4 UV-I 16,1 C 17,0 C 0,0 km/h (0 Bft)
12.07.2010 06:15 20,4 C 23,6 C 18,1 C 19,3 C 17,1 C 0,0 C 77 % 87 % 0 % 1013,1 hPa 0,0 l/m 0,2 km/h (0 Bft) SW 225 0 min 1,4 UV-I 16,2 C 17,1 C 1,6 km/h (1 Bft)
12.07.2010 06:20 20,7 C 23,6 C 18,1 C 19,6 C 17,3 C 0,0 C 77 % 87 % 0 % 1012,8 hPa 0,0 l/m 0,8 km/h (0 Bft) W-SW 247 0 min 1,4 UV-I 16,5 C 17,3 C 1,8 km/h (1 Bft)
12.07.2010 06:25 20,8 C 23,6 C 18,1 C 19,7 C 17,4 C 0,0 C 77 % 87 % 0 % 1012,8 hPa 0,0 l/m 1,1 km/h (1 Bft) W-SW 247 0 min 1,4 UV-I 16,6 C 17,4 C 1,6 km/h (1 Bft)
12.07.2010 06:30 21,5 C 23,6 C 18,1 C 20,2 C 17,6 C 0,0 C 76 % 87 % 0 % 1012,8 hPa 0,0 l/m 0,8 km/h (0 Bft) W-SW 247 0 min 1,5 UV-I 17,1 C 17,6 C 1,6 km/h (1 Bft)
12.07.2010 06:35 21,9 C 23,6 C 18,1 C 20,5 C 17,7 C 0,0 C 74 % 87 % 0 % 1012,8 hPa 0,0 l/m 0,3 km/h (0 Bft) W-SW 247 0 min 1,5 UV-I 17,0 C 17,7 C 0,0 km/h (0 Bft)
12.07.2010 06:40 21,8 C 23,4 C 18,1 C 20,5 C 18,0 C 0,0 C 74 % 87 % 0 % 1012,6 hPa 0,0 l/m 0,2 km/h (0 Bft) W 270 0 min 1,4 UV-I 17,0 C 18,0 C 2,1 km/h (1 Bft)
12.07.2010 06:45 21,7 C 23,5 C 18,1 C 20,5 C 18,2 C 0,0 C 74 % 87 % 0 % 1012,6 hPa 0,0 l/m 0,5 km/h (0 Bft) W-SW 247 0 min 1,5 UV-I 16,9 C 18,2 C 0,0 km/h (0 Bft)
12.07.2010 06:50 21,8 C 23,5 C 18,1 C 20,7 C 18,5 C 0,0 C 74 % 87 % 0 % 1012,6 hPa 0,0 l/m 0,5 km/h (0 Bft) W-SW 247 0 min 1,7 UV-I 17,0 C 18,5 C 0,0 km/h (0 Bft)
12.07.2010 06:55 22,3 C 23,4 C 18,1 C 21,2 C 18,9 C 0,0 C 73 % 87 % 0 % 1012,6 hPa 0,0 l/m 0,3 km/h (0 Bft) W-SW 247 0 min 1,7 UV-I 17,2 C 18,9 C 2,1 km/h (1 Bft)
12.07.2010 07:00 23,6 C 23,3 C 18,1 C 23,0 C 21,7 C 0,0 C 70 % 87 % 0 % 1012,6 hPa 0,0 l/m 0,5 km/h (0 Bft) W-SW 247 0 min 1,8 UV-I 17,8 C 21,7 C 0,0 km/h (0 Bft)
12.07.2010 07:06 24,7 C 23,4 C 18,1 C 24,4 C 23,7 C 0,0 C 68 % 87 % 0 % 1012,6 hPa 0,0 l/m 0,3 km/h (0 Bft) N 0 0 min 1,9 UV-I 18,4 C 23,7 C 0,0 km/h (0 Bft)
12.07.2010 07:10 27,8 C 23,3 C 18,1 C 27,1 C 25,7 C 0,0 C 60 % 87 % 0 % 1012,6 hPa 0,0 l/m 0,0 km/h (0 Bft) W-SW 247 0 min 1,8 UV-I 19,3 C 25,7 C 0,0 km/h (0 Bft)
12.07.2010 07:15 28,7 C 23,3 C 18,1 C 28,1 C 26,8 C 0,0 C 59 % 87 % 0 % 1012,6 hPa 0,0 l/m 0,0 km/h (0 Bft) W-SW 247 0 min 1,6 UV-I 19,9 C 26,8 C 0,0 km/h (0 Bft)
12.07.2010 07:20 28,7 C 23,3 C 18,1 C 28,5 C 28,2 C 0,0 C 56 % 87 % 0 % 1012,8 hPa 0,0 l/m 0,0 km/h (0 Bft) W-SW 247 0 min 1,5 UV-I 19,0 C 28,2 C 0,0 km/h (0 Bft)
12.07.2010 07:25 28,2 C 23,3 C 18,1 C 28,2 C 28,1 C 0,0 C 57 % 87 % 0 % 1012,8 hPa 0,0 l/m 0,5 km/h (0 Bft) NO 45 0 min 1,2 UV-I 18,9 C 28,1 C 0,0 km/h (0 Bft)
12.07.2010 07:30 27,3 C 23,3 C 18,1 C 28,5 C 28,5 C 1,2 C 59 % 87 % 32 % 1012,8 hPa 0,0 l/m 1,0 km/h (0 Bft) SW 225 0 min 0,3 UV-I 18,6 C 28,5 C 1,9 km/h (1 Bft)
12.07.2010 07:35 26,5 C 23,3 C 18,1 C 28,7 C 28,7 C 2,2 C 60 % 87 % 58 % 1012,8 hPa 0,0 l/m 0,8 km/h (0 Bft) SW 225 0 min 0,2 UV-I 18,1 C 28,7 C 0,0 km/h (0 Bft)
12.07.2010 07:40 25,9 C 23,3 C 18,1 C 29,4 C 29,4 C 3,5 C 62 % 87 % 92 % 1012,6 hPa 0,0 l/m 0,5 km/h (0 Bft) SW 225 5 min 1,0 UV-I 18,0 C 29,4 C 0,0 km/h (0 Bft)
12.07.2010 07:45 25,7 C 23,2 C 18,1 C 30,2 C 30,2 C 4,5 C 63 % 87 % 100 % 1012,6 hPa 0,0 l/m 0,2 km/h (0 Bft) S-SW 202 5 min 1,1 UV-I 18,1 C 30,2 C 0,0 km/h (0 Bft)
12.07.2010 07:50 25,6 C 23,2 C 18,1 C 30,8 C 30,8 C 5,2 C 64 % 87 % 100 % 1012,6 hPa 0,0 l/m 0,2 km/h (0 Bft) SW 225 5 min 3,0 UV-I 18,3 C 30,8 C 0,0 km/h (0 Bft)
12.07.2010 07:55 25,6 C 23,2 C 18,1 C 31,1 C 31,1 C 5,5 C 64 % 87 % 100 % 1012,6 hPa 0,0 l/m 0,2 km/h (0 Bft) SW 225 5 min 1,2 UV-I 18,3 C 31,1 C 0,0 km/h (0 Bft)
12.07.2010 08:00 25,7 C 23,2 C 18,1 C 31,9 C 31,9 C 6,2 C 65 % 87 % 100 % 1012,6 hPa 0,0 l/m 0,0 km/h (0 Bft) SW 225 5 min 0,5 UV-I 18,6 C 31,9 C 1,8 km/h (1 Bft)
12.07.2010 08:07 25,6 C 23,1 C 18,1 C 31,8 C 31,8 C 6,2 C 65 % 87 % 100 % 1012,6 hPa 0,0 l/m 0,3 km/h (0 Bft) N 0 7 min 0,4 UV-I 18,5 C 31,8 C 2,1 km/h (1 Bft)
12.07.2010 08:10 25,7 C 23,1 C 18,1 C 31,8 C 31,8 C 6,1 C 65 % 87 % 100 % 1012,6 hPa 0,0 l/m 1,1 km/h (1 Bft) SW 225 3 min 0,4 UV-I 18,6 C 31,8 C 1,6 km/h (1 Bft)
12.07.2010 08:15 25,6 C 23,1 C 18,1 C 32,1 C 32,1 C 6,5 C 66 % 87 % 100 % 1012,6 hPa 0,0 l/m 1,3 km/h (1 Bft) SW 225 5 min 0,5 UV-I 18,8 C 32,1 C 2,3 km/h (1 Bft)
12.07.2010 08:20 25,5 C 23,1 C 18,1 C 31,9 C 31,9 C 6,4 C 67 % 87 % 100 % 1012,4 hPa 0,0 l/m 1,9 km/h (1 Bft) SW 225 5 min 0,5 UV-I 18,9 C 31,9 C 3,1 km/h (1 Bft)
12.07.2010 08:25 25,5 C 23,1 C 18,1 C 31,6 C 31,6 C 6,1 C 67 % 87 % 100 % 1012,4 hPa 0,0 l/m 2,3 km/h (1 Bft) W-SW 247 5 min 0,5 UV-I 18,9 C 31,6 C 2,4 km/h (1 Bft)
12.07.2010 08:30 25,5 C 23,1 C 18,1 C 32,0 C 32,0 C 6,5 C 67 % 87 % 100 % 1012,4 hPa 0,0 l/m 1,4 km/h (1 Bft) SW 225 5 min 0,6 UV-I 18,9 C 32,0 C 0,0 km/h (0 Bft)
12.07.2010 08:35 25,4 C 23,1 C 18,1 C 32,6 C 32,6 C 7,2 C 68 % 87 % 100 % 1012,4 hPa 0,0 l/m 0,6 km/h (0 Bft) SW 225 5 min 0,7 UV-I 19,1 C 32,6 C 0,0 km/h (0 Bft)
12.07.2010 08:40 25,5 C 23,1 C 18,1 C 33,2 C 33,2 C 7,7 C 68 % 87 % 100 % 1012,1 hPa 0,0 l/m 0,2 km/h (0 Bft) SW 225 5 min 0,7 UV-I 19,1 C 33,2 C 0,0 km/h (0 Bft)
12.07.2010 08:45 25,6 C 23,1 C 18,1 C 33,3 C 33,3 C 7,7 C 68 % 87 % 100 % 1012,1 hPa 0,0 l/m 0,2 km/h (0 Bft) SW 225 5 min 0,8 UV-I 19,2 C 33,3 C 0,0 km/h (0 Bft)
12.07.2010 08:50 25,6 C 23,1 C 18,1 C 33,6 C 33,6 C 8,0 C 68 % 87 % 100 % 1012,1 hPa 0,0 l/m 0,2 km/h (0 Bft) S 180 5 min 0,9 UV-I 19,2 C 33,6 C 0,0 km/h (0 Bft)
12.07.2010 08:55 25,7 C 23,1 C 18,1 C 33,8 C 33,8 C 8,1 C 68 % 87 % 100 % 1012,1 hPa 0,0 l/m 0,8 km/h (0 Bft) SW 225 5 min 1,0 UV-I 19,3 C 33,8 C 2,6 km/h (1 Bft)
12.07.2010 09:00 26,5 C 23,1 C 18,1 C 33,7 C 33,7 C 7,2 C 67 % 87 % 100 % 1012,0 hPa 0,0 l/m 2,3 km/h (1 Bft) S 180 5 min 1,1 UV-I 19,9 C 33,7 C 4,8 km/h (1 Bft)
12.07.2010 09:08 26,2 C 23,1 C 18,1 C 33,6 C 33,6 C 7,4 C 68 % 87 % 100 % 1012,0 hPa 0,0 l/m 2,6 km/h (1 Bft) S 180 8 min 1,2 UV-I 19,8 C 33,6 C 2,9 km/h (1 Bft)
12.07.2010 09:10 26,1 C 23,1 C 18,1 C 33,8 C 33,8 C 7,7 C 68 % 87 % 100 % 1012,0 hPa 0,0 l/m 1,6 km/h (1 Bft) W-SW 247 2 min 1,3 UV-I 19,7 C 33,8 C 0,0 km/h (0 Bft)
12.07.2010 09:15 26,2 C 23,1 C 18,1 C 34,1 C 34,1 C 7,9 C 68 % 87 % 100 % 1012,0 hPa 0,0 l/m 1,0 km/h (0 Bft) SW 225 5 min 1,3 UV-I 19,8 C 34,1 C 3,1 km/h (1 Bft)
12.07.2010 09:20 26,2 C 23,1 C 18,1 C 34,5 C 34,5 C 8,3 C 68 % 87 % 100 % 1011,9 hPa 0,0 l/m 1,8 km/h (1 Bft) SW 225 5 min 1,4 UV-I 19,8 C 34,5 C 3,4 km/h (1 Bft)
12.07.2010 09:25 26,3 C 23,1 C 18,1 C 34,3 C 34,3 C 8,0 C 68 % 87 % 100 % 1011,9 hPa 0,0 l/m 2,3 km/h (1 Bft) W-NW 292 5 min 1,5 UV-I 19,9 C 34,3 C 0,0 km/h (0 Bft)
12.07.2010 09:30 26,4 C 23,1 C 18,1 C 35,1 C 35,1 C 8,7 C 68 % 87 % 100 % 1011,9 hPa 0,0 l/m 1,0 km/h (0 Bft) S 180 5 min 1,6 UV-I 20,0 C 35,1 C 1,6 km/h (1 Bft)
12.07.2010 09:35 26,7 C 23,1 C 18,1 C 35,6 C 35,6 C 8,9 C 69 % 87 % 100 % 1011,9 hPa 0,0 l/m 0,5 km/h (0 Bft) O-NO 67 5 min 1,6 UV-I 20,5 C 35,6 C 3,7 km/h (1 Bft)
12.07.2010 09:40 26,8 C 23,1 C 18,1 C 35,2 C 35,2 C 8,4 C 69 % 87 % 100 % 1011,8 hPa 0,0 l/m 1,0 km/h (0 Bft) SW 225 5 min 1,7 UV-I 20,6 C 35,2 C 2,7 km/h (1 Bft)
12.07.2010 09:45 26,9 C 23,1 C 18,1 C 35,6 C 35,6 C 8,7 C 68 % 87 % 100 % 1011,8 hPa 0,0 l/m 1,6 km/h (1 Bft) W-SW 247 5 min 1,4 UV-I 20,5 C 35,6 C 4,0 km/h (1 Bft)
12.07.2010 09:50 27,1 C 23,0 C 18,1 C 36,1 C 36,1 C 9,0 C 67 % 87 % 100 % 1011,8 hPa 0,0 l/m 1,6 km/h (1 Bft) SW 225 5 min 1,2 UV-I 20,4 C 36,1 C 2,7 km/h (1 Bft)
12.07.2010 09:55 27,3 C 23,0 C 18,1 C 36,3 C 36,3 C 9,0 C 66 % 87 % 100 % 1011,8 hPa 0,0 l/m 1,6 km/h (1 Bft) W-SW 247 5 min 1,3 UV-I 20,4 C 36,3 C 3,4 km/h (1 Bft)
12.07.2010 10:00 27,4 C 23,0 C 18,1 C 36,5 C 36,5 C 9,1 C 65 % 87 % 100 % 1011,8 hPa 0,0 l/m 1,0 km/h (0 Bft) NO 45 5 min 1,3 UV-I 20,2 C 36,5 C 0,0 km/h (0 Bft)
12.07.2010 10:10 27,9 C 23,0 C 18,1 C 37,1 C 37,1 C 9,2 C 63 % 87 % 100 % 1011,8 hPa 0,0 l/m 0,6 km/h (0 Bft) NW 315 10 min 1,4 UV-I 20,2 C 37,1 C 2,7 km/h (1 Bft)
12.07.2010 10:15 27,9 C 23,0 C 18,1 C 37,5 C 37,5 C 9,6 C 62 % 87 % 100 % 1011,8 hPa 0,0 l/m 0,8 km/h (0 Bft) S 180 5 min 1,4 UV-I 19,9 C 37,5 C 2,3 km/h (1 Bft)
12.07.2010 10:20 28,0 C 23,0 C 18,1 C 37,9 C 37,9 C 9,9 C 62 % 87 % 100 % 1011,5 hPa 0,0 l/m 0,6 km/h (0 Bft) N-NO 22 5 min 1,4 UV-I 20,0 C 37,9 C 1,9 km/h (1 Bft)
12.07.2010 10:25 28,1 C 23,0 C 18,1 C 38,2 C 38,2 C 10,1 C 62 % 87 % 100 % 1011,5 hPa 0,0 l/m 0,5 km/h (0 Bft) S 180 5 min 1,7 UV-I 20,1 C 38,2 C 0,0 km/h (0 Bft)
12.07.2010 10:30 28,3 C 23,1 C 18,1 C 38,2 C 38,2 C 9,9 C 60 % 87 % 100 % 1011,5 hPa 0,0 l/m 0,6 km/h (0 Bft) S-SW 202 5 min 2,2 UV-I 19,8 C 38,2 C 3,5 km/h (1 Bft)
12.07.2010 10:35 28,5 C 23,1 C 18,1 C 38,1 C 38,1 C 9,6 C 59 % 87 % 100 % 1011,5 hPa 0,0 l/m 0,8 km/h (0 Bft) SW 225 5 min 2,2 UV-I 19,7 C 38,1 C 1,8 km/h (1 Bft)
12.07.2010 10:40 28,7 C 23,1 C 18,1 C 38,2 C 38,2 C 9,5 C 59 % 87 % 100 % 1011,3 hPa 0,0 l/m 1,3 km/h (1 Bft) SW 225 5 min 2,5 UV-I 19,9 C 38,2 C 3,7 km/h (1 Bft)
12.07.2010 10:45 28,8 C 23,1 C 18,1 C 37,7 C 37,7 C 8,9 C 59 % 87 % 100 % 1011,3 hPa 0,0 l/m 2,1 km/h (1 Bft) W-SW 247 5 min 2,6 UV-I 20,0 C 37,7 C 3,1 km/h (1 Bft)
12.07.2010 10:50 28,9 C 23,1 C 18,1 C 37,3 C 37,3 C 8,4 C 58 % 87 % 100 % 1011,3 hPa 0,0 l/m 2,9 km/h (1 Bft) W-SW 247 5 min 2,7 UV-I 19,8 C 37,3 C 5,1 km/h (1 Bft)
12.07.2010 10:55 29,1 C 23,1 C 18,1 C 37,3 C 37,3 C 8,2 C 58 % 87 % 100 % 1011,3 hPa 0,0 l/m 2,6 km/h (1 Bft) S-SW 202 5 min 2,7 UV-I 20,0 C 37,3 C 4,0 km/h (1 Bft)
12.07.2010 11:00 29,3 C 23,1 C 18,1 C 37,4 C 37,4 C 8,1 C 54 % 87 % 100 % 1011,2 hPa 0,0 l/m 2,4 km/h (1 Bft) SW 225 5 min 2,7 UV-I 19,0 C 37,4 C 3,7 km/h (1 Bft)
12.07.2010 11:08 29,5 C 23,1 C 18,1 C 37,5 C 37,5 C 8,0 C 54 % 87 % 100 % 1011,2 hPa 0,0 l/m 2,4 km/h (1 Bft) SW 225 8 min 2,7 UV-I 19,2 C 37,5 C 4,0 km/h (1 Bft)
12.07.2010 11:10 29,6 C 23,1 C 18,1 C 37,6 C 37,6 C 8,0 C 52 % 87 % 100 % 1011,2 hPa 0,0 l/m 2,1 km/h (1 Bft) S-SW 202 2 min 2,8 UV-I 18,7 C 37,6 C 2,6 km/h (1 Bft)
12.07.2010 11:15 29,7 C 23,2 C 18,1 C 37,8 C 37,8 C 8,1 C 51 % 87 % 100 % 1011,2 hPa 0,0 l/m 1,9 km/h (1 Bft) S 180 5 min 2,9 UV-I 18,5 C 37,8 C 0,0 km/h (0 Bft)
12.07.2010 11:20 30,0 C 23,2 C 18,1 C 37,9 C 37,9 C 7,9 C 51 % 87 % 100 % 1011,0 hPa 0,0 l/m 1,1 km/h (1 Bft) SO 135 5 min 2,9 UV-I 18,7 C 37,9 C 0,0 km/h (0 Bft)
12.07.2010 11:25 30,1 C 23,2 C 18,1 C 38,1 C 38,1 C 8,0 C 51 % 87 % 100 % 1011,0 hPa 0,0 l/m 0,8 km/h (0 Bft) S-SW 202 5 min 2,3 UV-I 18,8 C 38,1 C 2,7 km/h (1 Bft)
12.07.2010 11:30 30,3 C 23,1 C 18,1 C 38,2 C 38,2 C 7,9 C 51 % 87 % 100 % 1011,0 hPa 0,0 l/m 1,4 km/h (1 Bft) S-SO 157 5 min 2,3 UV-I 19,0 C 38,2 C 0,0 km/h (0 Bft)
12.07.2010 11:35 30,4 C 23,1 C 18,1 C 38,4 C 38,4 C 8,0 C 51 % 87 % 100 % 1011,0 hPa 0,0 l/m 1,3 km/h (1 Bft) SW 225 5 min 2,0 UV-I 19,1 C 38,4 C 3,1 km/h (1 Bft)
12.07.2010 11:40 30,6 C 23,2 C 18,1 C 38,2 C 38,2 C 7,6 C 51 % 87 % 100 % 1011,2 hPa 0,0 l/m 2,1 km/h (1 Bft) S 180 5 min 2,6 UV-I 19,3 C 38,2 C 3,2 km/h (1 Bft)
12.07.2010 11:45 30,6 C 23,2 C 18,1 C 38,1 C 38,1 C 7,5 C 52 % 87 % 100 % 1011,2 hPa 0,0 l/m 2,3 km/h (1 Bft) S 180 5 min 3,1 UV-I 19,6 C 38,1 C 5,6 km/h (1 Bft)
12.07.2010 11:50 30,9 C 23,2 C 18,1 C 38,2 C 38,2 C 7,3 C 50 % 87 % 100 % 1011,2 hPa 0,0 l/m 1,4 km/h (1 Bft) S-SW 202 5 min 3,3 UV-I 19,2 C 38,2 C 3,7 km/h (1 Bft)
12.07.2010 11:55 30,9 C 23,2 C 18,1 C 38,0 C 38,0 C 7,1 C 49 % 87 % 100 % 1011,2 hPa 0,0 l/m 1,9 km/h (1 Bft) SW 225 5 min 3,7 UV-I 18,9 C 38,0 C 4,8 km/h (1 Bft)
12.07.2010 12:00 31,0 C 23,2 C 18,1 C 37,7 C 37,7 C 6,7 C 48 % 87 % 100 % 1011,2 hPa 0,0 l/m 3,1 km/h (1 Bft) S 180 5 min 3,8 UV-I 18,7 C 37,7 C 2,1 km/h (1 Bft)
12.07.2010 12:08 31,1 C 23,2 C 18,1 C 37,7 C 37,7 C 6,6 C 48 % 87 % 100 % 1011,2 hPa 0,0 l/m 3,1 km/h (1 Bft) SO 135 8 min 3,8 UV-I 18,8 C 37,7 C 6,3 km/h (2 Bft)
12.07.2010 12:10 31,4 C 23,2 C 18,1 C 38,2 C 38,2 C 6,8 C 47 % 87 % 100 % 1011,2 hPa 0,0 l/m 1,8 km/h (1 Bft) S-SO 157 2 min 4,0 UV-I 18,7 C 38,2 C 2,4 km/h (1 Bft)
12.07.2010 12:15 31,5 C 23,3 C 18,1 C 38,1 C 38,1 C 6,6 C 47 % 87 % 100 % 1011,2 hPa 0,0 l/m 2,1 km/h (1 Bft) O-SO 112 5 min 4,0 UV-I 18,8 C 38,1 C 0,0 km/h (0 Bft)
12.07.2010 12:20 31,7 C 23,3 C 18,1 C 38,0 C 38,0 C 6,3 C 44 % 87 % 100 % 1011,3 hPa 0,0 l/m 2,7 km/h (1 Bft) SW 225 5 min 3,9 UV-I 17,9 C 38,0 C 3,2 km/h (1 Bft)
12.07.2010 12:25 31,7 C 23,3 C 18,1 C 38,0 C 38,0 C 6,3 C 45 % 87 % 100 % 1011,3 hPa 0,0 l/m 2,6 km/h (1 Bft) S 180 5 min 3,9 UV-I 18,3 C 38,0 C 3,7 km/h (1 Bft)
12.07.2010 12:30 31,9 C 23,3 C 18,1 C 38,0 C 38,0 C 6,1 C 44 % 87 % 100 % 1011,3 hPa 0,0 l/m 3,1 km/h (1 Bft) S 180 5 min 4,0 UV-I 18,1 C 38,0 C 3,4 km/h (1 Bft)
12.07.2010 12:35 32,1 C 23,3 C 18,1 C 38,0 C 38,0 C 5,9 C 43 % 87 % 100 % 1011,3 hPa 0,0 l/m 3,5 km/h (1 Bft) S-SW 202 5 min 3,9 UV-I 17,9 C 38,0 C 4,0 km/h (1 Bft)
12.07.2010 12:40 32,3 C 23,3 C 18,1 C 38,0 C 38,0 C 5,7 C 42 % 87 % 100 % 1011,5 hPa 0,0 l/m 3,2 km/h (1 Bft) SW 225 5 min 3,9 UV-I 17,7 C 38,0 C 4,0 km/h (1 Bft)
12.07.2010 12:45 32,3 C 23,3 C 18,1 C 38,2 C 38,2 C 5,9 C 42 % 87 % 100 % 1011,5 hPa 0,0 l/m 2,7 km/h (1 Bft) S 180 5 min 4,0 UV-I 17,7 C 38,2 C 2,3 km/h (1 Bft)
12.07.2010 12:50 32,5 C 23,4 C 18,1 C 38,2 C 38,2 C 5,7 C 42 % 87 % 100 % 1011,5 hPa 0,0 l/m 3,1 km/h (1 Bft) W-SW 247 5 min 4,0 UV-I 17,9 C 38,2 C 6,8 km/h (2 Bft)
12.07.2010 12:55 32,5 C 23,4 C 18,1 C 38,0 C 38,0 C 5,5 C 42 % 87 % 100 % 1011,5 hPa 0,0 l/m 3,9 km/h (1 Bft) SW 225 5 min 4,1 UV-I 17,9 C 38,0 C 5,8 km/h (2 Bft)
12.07.2010 13:00 32,6 C 23,4 C 18,1 C 38,0 C 38,0 C 5,4 C 41 % 87 % 100 % 1011,2 hPa 0,0 l/m 3,7 km/h (1 Bft) SW 225 5 min 4,2 UV-I 17,6 C 38,0 C 2,9 km/h (1 Bft)
12.07.2010 13:08 32,8 C 23,5 C 18,1 C 38,4 C 38,4 C 5,6 C 42 % 87 % 100 % 1011,2 hPa 0,0 l/m 2,6 km/h (1 Bft) SW 225 8 min 4,2 UV-I 18,2 C 38,4 C 7,6 km/h (2 Bft)
12.07.2010 13:10 32,8 C 23,5 C 18,1 C 38,6 C 38,6 C 5,8 C 42 % 87 % 100 % 1011,2 hPa 0,0 l/m 1,6 km/h (1 Bft) S 180 2 min 4,3 UV-I 18,2 C 38,6 C 0,0 km/h (0 Bft)
12.07.2010 13:15 32,9 C 23,5 C 18,1 C 39,2 C 39,2 C 6,3 C 42 % 87 % 100 % 1011,2 hPa 0,0 l/m 1,0 km/h (0 Bft) N-NO 22 5 min 4,4 UV-I 18,3 C 39,2 C 2,6 km/h (1 Bft)
12.07.2010 13:20 33,1 C 23,5 C 18,1 C 39,5 C 39,5 C 6,4 C 41 % 87 % 100 % 1010,9 hPa 0,0 l/m 0,3 km/h (0 Bft) O-NO 67 5 min 4,4 UV-I 18,0 C 39,5 C 0,0 km/h (0 Bft)
12.07.2010 13:25 33,2 C 23,6 C 31,8 C 39,6 C 39,6 C 6,4 C 40 % 45 % 100 % 1010,9 hPa 0,0 l/m 0,8 km/h (0 Bft) O-NO 67 5 min 4,4 UV-I 17,7 C 39,6 C 3,2 km/h (1 Bft)
12.07.2010 13:30 33,3 C 23,6 C 31,8 C 39,3 C 39,3 C 6,0 C 40 % 45 % 100 % 1010,9 hPa 0,0 l/m 1,1 km/h (1 Bft) SO 135 5 min 4,5 UV-I 17,8 C 39,3 C 0,0 km/h (0 Bft)
12.07.2010 13:35 33,4 C 23,6 C 31,8 C 39,5 C 39,5 C 6,1 C 40 % 45 % 100 % 1010,9 hPa 0,0 l/m 1,4 km/h (1 Bft) SW 225 5 min 4,5 UV-I 17,9 C 39,5 C 6,3 km/h (2 Bft)
12.07.2010 13:40 33,5 C 23,5 C 31,8 C 39,5 C 39,5 C 6,0 C 40 % 45 % 100 % 1010,8 hPa 0,0 l/m 1,8 km/h (1 Bft) O-NO 67 5 min 4,5 UV-I 18,0 C 39,5 C 2,7 km/h (1 Bft)
12.07.2010 13:45 33,5 C 23,6 C 31,8 C 39,1 C 39,1 C 5,6 C 40 % 45 % 100 % 1010,8 hPa 0,0 l/m 2,6 km/h (1 Bft) N-NO 22 5 min 4,4 UV-I 18,0 C 39,1 C 2,3 km/h (1 Bft)
12.07.2010 13:50 33,7 C 23,6 C 31,8 C 38,8 C 38,8 C 5,1 C 39 % 45 % 100 % 1010,8 hPa 0,0 l/m 2,9 km/h (1 Bft) N-NO 22 5 min 4,3 UV-I 17,8 C 38,8 C 4,0 km/h (1 Bft)
12.07.2010 13:55 33,8 C 23,7 C 31,8 C 38,9 C 38,9 C 5,1 C 40 % 45 % 100 % 1010,8 hPa 0,0 l/m 2,9 km/h (1 Bft) O-NO 67 5 min 4,2 UV-I 18,3 C 38,9 C 2,1 km/h (1 Bft)
12.07.2010 14:00 33,9 C 23,7 C 31,8 C 39,1 C 39,1 C 5,2 C 39 % 45 % 100 % 1010,3 hPa 0,0 l/m 1,9 km/h (1 Bft) NO 45 5 min 4,1 UV-I 18,0 C 39,1 C 0,0 km/h (0 Bft)
12.07.2010 14:08 34,0 C 23,7 C 31,8 C 39,6 C 39,6 C 5,6 C 39 % 45 % 100 % 1010,3 hPa 0,0 l/m 1,4 km/h (1 Bft) NO 45 8 min 4,0 UV-I 18,0 C 39,6 C 0,0 km/h (0 Bft)
12.07.2010 14:10 34,1 C 23,8 C 31,8 C 39,4 C 39,4 C 5,3 C 39 % 45 % 100 % 1010,3 hPa 0,0 l/m 2,6 km/h (1 Bft) O-NO 67 2 min 4,0 UV-I 18,1 C 39,4 C 5,8 km/h (2 Bft)
12.07.2010 14:15 34,3 C 23,8 C 31,8 C 38,6 C 38,6 C 4,3 C 37 % 45 % 100 % 1010,3 hPa 0,0 l/m 4,7 km/h (1 Bft) O-NO 67 5 min 4,0 UV-I 17,5 C 38,6 C 8,2 km/h (2 Bft)
12.07.2010 14:20 34,4 C 23,8 C 31,8 C 38,3 C 38,3 C 3,9 C 38 % 45 % 100 % 1010,2 hPa 0,0 l/m 4,8 km/h (1 Bft) O-NO 67 5 min 3,8 UV-I 18,0 C 38,3 C 8,4 km/h (2 Bft)
12.07.2010 14:25 34,5 C 23,8 C 31,8 C 38,2 C 38,2 C 3,7 C 37 % 45 % 97 % 1010,2 hPa 0,0 l/m 3,9 km/h (1 Bft) NO 45 5 min 3,7 UV-I 17,7 C 38,2 C 8,9 km/h (2 Bft)
12.07.2010 14:30 34,5 C 23,8 C 31,8 C 39,0 C 39,0 C 4,5 C 38 % 45 % 100 % 1010,2 hPa 0,0 l/m 2,3 km/h (1 Bft) O 90 5 min 3,8 UV-I 18,1 C 39,0 C 2,7 km/h (1 Bft)
12.07.2010 14:35 34,7 C 23,8 C 31,8 C 39,6 C 39,6 C 4,9 C 38 % 45 % 100 % 1010,2 hPa 0,0 l/m 0,8 km/h (0 Bft) O-SO 112 5 min 3,8 UV-I 18,3 C 39,6 C 2,4 km/h (1 Bft)
12.07.2010 14:40 34,8 C 23,9 C 31,8 C 40,3 C 40,3 C 5,5 C 38 % 45 % 100 % 1010,2 hPa 0,0 l/m 1,1 km/h (1 Bft) W-NW 292 5 min 3,8 UV-I 18,3 C 40,3 C 2,6 km/h (1 Bft)
12.07.2010 14:45 34,9 C 23,9 C 31,8 C 40,6 C 40,6 C 5,7 C 38 % 45 % 100 % 1010,2 hPa 0,0 l/m 1,8 km/h (1 Bft) O-SO 112 5 min 3,8 UV-I 18,4 C 40,6 C 4,5 km/h (1 Bft)
12.07.2010 14:50 34,8 C 24,0 C 31,8 C 40,4 C 40,4 C 5,6 C 37 % 45 % 100 % 1010,2 hPa 0,0 l/m 2,3 km/h (1 Bft) NW 315 5 min 3,7 UV-I 17,9 C 40,4 C 2,9 km/h (1 Bft)
12.07.2010 14:55 34,9 C 24,0 C 31,8 C 40,5 C 40,5 C 5,6 C 38 % 45 % 100 % 1010,2 hPa 0,0 l/m 1,8 km/h (1 Bft) O-NO 67 5 min 3,6 UV-I 18,4 C 40,5 C 2,1 km/h (1 Bft)
12.07.2010 15:00 35,1 C 24,1 C 31,8 C 41,1 C 41,1 C 6,0 C 37 % 45 % 100 % 1009,6 hPa 0,0 l/m 1,0 km/h (0 Bft) NO 45 5 min 3,6 UV-I 18,2 C 41,1 C 3,1 km/h (1 Bft)
12.07.2010 15:10 35,3 C 24,2 C 31,8 C 41,0 C 41,0 C 5,7 C 37 % 45 % 100 % 1009,6 hPa 0,0 l/m 1,6 km/h (1 Bft) O-NO 67 10 min 3,6 UV-I 18,4 C 41,0 C 2,4 km/h (1 Bft)
12.07.2010 15:15 35,2 C 24,2 C 31,8 C 40,2 C 40,2 C 5,0 C 37 % 45 % 100 % 1009,6 hPa 0,0 l/m 3,2 km/h (1 Bft) NO 45 5 min 3,4 UV-I 18,3 C 40,2 C 9,0 km/h (2 Bft)
12.07.2010 15:20 35,4 C 24,2 C 31,8 C 39,7 C 39,7 C 4,3 C 37 % 45 % 100 % 1009,6 hPa 0,0 l/m 3,7 km/h (1 Bft) O 90 5 min 3,3 UV-I 18,4 C 39,7 C 0,0 km/h (0 Bft)
12.07.2010 15:25 35,6 C 24,3 C 31,8 C 40,4 C 40,4 C 4,8 C 37 % 45 % 100 % 1009,6 hPa 0,0 l/m 1,9 km/h (1 Bft) O 90 5 min 3,4 UV-I 18,6 C 40,4 C 9,2 km/h (2 Bft)
12.07.2010 15:29 35,3 C 24,3 C 33,6 C 39,7 C 39,7 C 4,4 C 37 % 40 % 100 % 1009,6 hPa 0,0 l/m 2,9 km/h (1 Bft) O-NO 67 4 min 3,2 UV-I 18,4 C 39,7 C 2,3 km/h (1 Bft)
12.07.2010 15:30 35,3 C 24,3 C 33,6 C 39,7 C 39,7 C 4,4 C 37 % 40 % 100 % 1009,6 hPa 0,0 l/m 2,9 km/h (1 Bft) O-NO 67 1 min 3,2 UV-I 18,4 C 39,7 C 2,3 km/h (1 Bft)
12.07.2010 15:35 34,8 C 24,4 C 34,9 C 38,5 C 38,5 C 3,7 C 39 % 40 % 97 % 1009,6 hPa 0,0 l/m 3,1 km/h (1 Bft) O 90 5 min 2,0 UV-I 18,8 C 38,5 C 0,0 km/h (0 Bft)
12.07.2010 15:40 34,5 C 24,5 C 34,3 C 37,2 C 37,2 C 2,7 C 39 % 40 % 71 % 1009,4 hPa 0,0 l/m 1,0 km/h (0 Bft) O-NO 67 0 min 1,6 UV-I 18,5 C 37,2 C 1,6 km/h (1 Bft)
12.07.2010 15:45 34,3 C 24,5 C 34,3 C 36,5 C 36,5 C 2,2 C 38 % 40 % 58 % 1009,4 hPa 0,0 l/m 1,1 km/h (1 Bft) NO 45 0 min 1,5 UV-I 17,9 C 36,5 C 4,2 km/h (1 Bft)
12.07.2010 15:50 34,5 C 24,6 C 34,1 C 36,3 C 36,3 C 1,8 C 39 % 40 % 47 % 1009,4 hPa 0,0 l/m 2,7 km/h (1 Bft) O-NO 67 0 min 2,2 UV-I 18,5 C 36,3 C 3,4 km/h (1 Bft)
12.07.2010 15:55 34,7 C 24,6 C 34,9 C 37,0 C 37,0 C 2,3 C 39 % 41 % 61 % 1009,4 hPa 0,0 l/m 2,6 km/h (1 Bft) O-NO 67 0 min 2,9 UV-I 18,7 C 37,0 C 2,4 km/h (1 Bft)
12.07.2010 16:00 35,1 C 24,7 C 35,0 C 38,8 C 38,8 C 3,7 C 39 % 41 % 97 % 1009,2 hPa 0,0 l/m 1,8 km/h (1 Bft) W 270 5 min 3,0 UV-I 19,0 C 38,8 C 3,2 km/h (1 Bft)
12.07.2010 16:07 35,3 C 24,8 C 35,7 C 39,6 C 39,6 C 4,3 C 38 % 39 % 100 % 1009,2 hPa 0,0 l/m 1,9 km/h (1 Bft) N 0 7 min 3,0 UV-I 18,8 C 39,6 C 3,1 km/h (1 Bft)
12.07.2010 16:10 35,3 C 24,8 C 35,8 C 40,1 C 40,1 C 4,8 C 37 % 38 % 100 % 1009,2 hPa 0,0 l/m 1,6 km/h (1 Bft) O 90 3 min 3,1 UV-I 18,4 C 40,1 C 1,8 km/h (1 Bft)
12.07.2010 16:15 35,4 C 24,9 C 35,6 C 40,5 C 40,5 C 5,1 C 38 % 40 % 100 % 1009,2 hPa 0,0 l/m 1,6 km/h (1 Bft) O-NO 67 5 min 3,0 UV-I 18,9 C 40,5 C 7,4 km/h (2 Bft)
12.07.2010 16:20 35,5 C 24,9 C 35,6 C 40,4 C 40,4 C 4,9 C 38 % 38 % 100 % 1009,0 hPa 0,0 l/m 2,9 km/h (1 Bft) N-NW 337 5 min 2,9 UV-I 19,0 C 40,4 C 5,3 km/h (1 Bft)
12.07.2010 16:25 35,6 C 24,9 C 36,1 C 40,3 C 40,3 C 4,7 C 37 % 36 % 100 % 1009,0 hPa 0,0 l/m 3,4 km/h (1 Bft) O-NO 67 5 min 2,9 UV-I 18,6 C 40,3 C 0,0 km/h (0 Bft)
12.07.2010 16:30 35,6 C 25,1 C 36,2 C 40,3 C 40,3 C 4,7 C 38 % 38 % 100 % 1009,0 hPa 0,0 l/m 2,9 km/h (1 Bft) N-NO 22 5 min 2,7 UV-I 19,0 C 40,3 C 4,2 km/h (1 Bft)
12.07.2010 16:35 35,7 C 25,1 C 36,1 C 40,2 C 40,2 C 4,5 C 38 % 38 % 100 % 1009,0 hPa 0,0 l/m 1,8 km/h (1 Bft) NW 315 5 min 2,6 UV-I 19,1 C 40,2 C 5,3 km/h (1 Bft)
12.07.2010 16:40 35,6 C 25,1 C 36,1 C 40,4 C 40,4 C 4,8 C 37 % 38 % 100 % 1008,6 hPa 0,0 l/m 1,6 km/h (1 Bft) N-NO 22 5 min 2,4 UV-I 18,6 C 40,4 C 1,6 km/h (1 Bft)
12.07.2010 16:45 35,7 C 25,2 C 35,8 C 40,5 C 40,5 C 4,8 C 37 % 39 % 100 % 1008,6 hPa 0,0 l/m 1,9 km/h (1 Bft) N 360 5 min 2,3 UV-I 18,7 C 40,5 C 1,9 km/h (1 Bft)
12.07.2010 16:50 35,6 C 25,2 C 35,7 C 40,1 C 40,1 C 4,5 C 36 % 36 % 100 % 1008,6 hPa 0,0 l/m 2,3 km/h (1 Bft) O-NO 67 5 min 2,2 UV-I 18,2 C 40,1 C 3,7 km/h (1 Bft)
12.07.2010 16:55 35,8 C 25,2 C 35,7 C 40,0 C 40,0 C 4,2 C 36 % 37 % 100 % 1008,6 hPa 0,0 l/m 2,6 km/h (1 Bft) O-NO 67 5 min 2,1 UV-I 18,4 C 40,0 C 3,5 km/h (1 Bft)
12.07.2010 17:00 36,1 C 25,2 C 35,8 C 40,0 C 40,0 C 3,9 C 37 % 37 % 100 % 1008,1 hPa 0,0 l/m 2,7 km/h (1 Bft) NW 315 5 min 2,0 UV-I 19,1 C 40,0 C 2,1 km/h (1 Bft)
12.07.2010 17:06 36,1 C 25,3 C 35,9 C 40,1 C 40,1 C 4,0 C 37 % 37 % 100 % 1008,1 hPa 0,0 l/m 2,3 km/h (1 Bft) N 0 6 min 1,9 UV-I 19,1 C 40,1 C 1,6 km/h (1 Bft)
12.07.2010 17:10 36,1 C 25,3 C 35,7 C 40,4 C 40,4 C 4,3 C 36 % 37 % 100 % 1008,1 hPa 0,0 l/m 1,1 km/h (1 Bft) O-NO 67 4 min 1,8 UV-I 18,6 C 40,4 C 7,4 km/h (2 Bft)
12.07.2010 17:15 36,0 C 25,3 C 35,7 C 40,3 C 40,3 C 4,3 C 36 % 37 % 100 % 1008,1 hPa 0,0 l/m 1,3 km/h (1 Bft) NO 45 5 min 1,8 UV-I 18,5 C 40,3 C 0,0 km/h (0 Bft)
12.07.2010 17:20 36,1 C 25,3 C 35,5 C 40,0 C 40,0 C 3,9 C 36 % 37 % 100 % 1007,7 hPa 0,0 l/m 1,9 km/h (1 Bft) O 90 5 min 1,6 UV-I 18,6 C 40,0 C 0,0 km/h (0 Bft)
12.07.2010 17:25 36,0 C 25,3 C 35,4 C 39,8 C 39,8 C 3,8 C 36 % 37 % 100 % 1007,7 hPa 0,0 l/m 2,6 km/h (1 Bft) O-SO 112 5 min 1,5 UV-I 18,5 C 39,8 C 9,2 km/h (2 Bft)
12.07.2010 17:30 35,8 C 25,3 C 35,0 C 38,8 C 38,8 C 3,0 C 35 % 37 % 79 % 1007,7 hPa 0,0 l/m 4,3 km/h (1 Bft) O-NO 67 0 min 1,4 UV-I 17,9 C 38,8 C 4,0 km/h (1 Bft)
12.07.2010 17:35 35,8 C 25,4 C 35,0 C 38,6 C 38,6 C 2,8 C 36 % 37 % 74 % 1007,7 hPa 0,0 l/m 4,3 km/h (1 Bft) O-NO 67 0 min 1,3 UV-I 18,4 C 38,6 C 2,1 km/h (1 Bft)
12.07.2010 17:40 35,8 C 25,4 C 34,9 C 38,4 C 38,4 C 2,6 C 36 % 38 % 68 % 1007,3 hPa 0,0 l/m 4,0 km/h (1 Bft) O-NO 67 0 min 1,2 UV-I 18,4 C 38,4 C 5,8 km/h (2 Bft)
12.07.2010 17:45 35,6 C 25,4 C 34,8 C 38,0 C 38,0 C 2,4 C 36 % 38 % 63 % 1007,3 hPa 0,0 l/m 4,7 km/h (1 Bft) O-NO 67 0 min 1,2 UV-I 18,2 C 38,0 C 5,8 km/h (2 Bft)
12.07.2010 17:50 35,9 C 25,4 C 34,7 C 38,0 C 38,0 C 2,1 C 38 % 40 % 55 % 1007,3 hPa 0,0 l/m 3,4 km/h (1 Bft) N-NO 22 0 min 1,2 UV-I 19,3 C 38,0 C 0,0 km/h (0 Bft)
12.07.2010 17:55 35,9 C 25,4 C 34,6 C 38,3 C 38,3 C 2,4 C 36 % 39 % 63 % 1007,3 hPa 0,0 l/m 2,1 km/h (1 Bft) NO 45 0 min 1,0 UV-I 18,4 C 38,3 C 5,1 km/h (1 Bft)
12.07.2010 18:00 35,7 C 25,4 C 34,5 C 38,4 C 38,4 C 2,7 C 34 % 38 % 71 % 1007,1 hPa 0,0 l/m 2,6 km/h (1 Bft) O-NO 67 0 min 1,0 UV-I 17,4 C 38,4 C 3,7 km/h (1 Bft)
12.07.2010 18:06 35,7 C 25,4 C 34,4 C 38,1 C 38,1 C 2,4 C 34 % 38 % 63 % 1007,1 hPa 0,0 l/m 4,5 km/h (1 Bft) N 0 0 min 0,9 UV-I 17,4 C 38,1 C 7,2 km/h (2 Bft)
12.07.2010 18:10 35,7 C 25,4 C 34,5 C 37,6 C 37,6 C 1,9 C 34 % 37 % 50 % 1007,1 hPa 0,0 l/m 6,0 km/h (2 Bft) O-NO 67 0 min 0,8 UV-I 17,4 C 37,6 C 11,3 km/h (2 Bft)
12.07.2010 18:15 35,6 C 25,4 C 34,3 C 37,2 C 37,2 C 1,6 C 36 % 39 % 42 % 1007,1 hPa 0,0 l/m 6,4 km/h (2 Bft) O-NO 67 0 min 0,8 UV-I 18,2 C 37,2 C 8,0 km/h (2 Bft)
12.07.2010 18:20 35,4 C 25,5 C 34,3 C 36,7 C 36,7 C 1,3 C 37 % 40 % 34 % 1007,3 hPa 0,0 l/m 6,9 km/h (2 Bft) NO 45 0 min 0,7 UV-I 18,4 C 36,7 C 7,4 km/h (2 Bft)
12.07.2010 18:25 35,4 C 25,5 C 34,1 C 36,5 C 36,5 C 1,1 C 37 % 40 % 29 % 1007,3 hPa 0,0 l/m 6,8 km/h (2 Bft) NO 45 0 min 0,6 UV-I 18,4 C 36,5 C 6,6 km/h (2 Bft)
12.07.2010 18:30 35,4 C 25,6 C 34,0 C 36,4 C 36,4 C 1,0 C 37 % 40 % 26 % 1007,3 hPa 0,0 l/m 6,3 km/h (2 Bft) NO 45 0 min 0,6 UV-I 18,4 C 36,4 C 8,2 km/h (2 Bft)
12.07.2010 18:35 35,5 C 25,6 C 33,9 C 36,3 C 36,3 C 0,8 C 37 % 40 % 21 % 1007,3 hPa 0,0 l/m 5,5 km/h (1 Bft) NO 45 0 min 0,5 UV-I 18,5 C 36,3 C 12,6 km/h (3 Bft)
12.07.2010 18:40 35,3 C 25,6 C 33,8 C 36,3 C 36,3 C 1,0 C 37 % 41 % 26 % 1007,2 hPa 0,0 l/m 5,0 km/h (1 Bft) O-NO 67 0 min 0,5 UV-I 18,4 C 36,3 C 8,7 km/h (2 Bft)
12.07.2010 18:45 35,2 C 25,6 C 33,7 C 36,2 C 36,2 C 1,0 C 37 % 40 % 26 % 1007,2 hPa 0,0 l/m 5,6 km/h (1 Bft) O-NO 67 0 min 0,4 UV-I 18,3 C 36,2 C 8,9 km/h (2 Bft)
12.07.2010 18:50 35,1 C 25,6 C 33,7 C 36,1 C 36,1 C 1,0 C 37 % 41 % 26 % 1007,2 hPa 0,0 l/m 6,1 km/h (2 Bft) O-NO 67 0 min 0,4 UV-I 18,2 C 36,1 C 7,7 km/h (2 Bft)
12.07.2010 18:55 35,1 C 25,6 C 33,5 C 35,9 C 35,9 C 0,8 C 38 % 41 % 21 % 1007,2 hPa 0,0 l/m 6,3 km/h (2 Bft) O-NO 67 0 min 0,4 UV-I 18,6 C 35,9 C 5,8 km/h (2 Bft)
12.07.2010 19:00 35,0 C 25,6 C 33,2 C 35,8 C 35,8 C 0,8 C 37 % 41 % 21 % 1007,1 hPa 0,0 l/m 6,0 km/h (2 Bft) S-SW 202 0 min 0,3 UV-I 18,1 C 35,8 C 6,1 km/h (2 Bft)
12.07.2010 19:06 34,8 C 25,6 C 33,2 C 35,7 C 35,7 C 0,9 C 37 % 41 % 24 % 1007,1 hPa 0,0 l/m 6,0 km/h (2 Bft) N 0 0 min 0,2 UV-I 17,9 C 35,7 C 6,6 km/h (2 Bft)
12.07.2010 19:10 34,9 C 25,6 C 33,0 C 35,6 C 35,6 C 0,7 C 37 % 42 % 18 % 1007,1 hPa 0,0 l/m 5,5 km/h (1 Bft) O-NO 67 0 min 0,2 UV-I 18,0 C 35,6 C 3,7 km/h (1 Bft)
12.07.2010 19:15 34,9 C 25,6 C 32,9 C 35,4 C 35,4 C 0,5 C 37 % 42 % 13 % 1007,1 hPa 0,0 l/m 4,8 km/h (1 Bft) O-NO 67 0 min 0,2 UV-I 18,0 C 35,4 C 4,5 km/h (1 Bft)
12.07.2010 19:20 34,6 C 25,6 C 32,7 C 35,3 C 35,3 C 0,7 C 38 % 42 % 18 % 1006,8 hPa 0,0 l/m 4,3 km/h (1 Bft) O-NO 67 0 min 0,2 UV-I 18,2 C 35,3 C 4,3 km/h (1 Bft)
12.07.2010 19:25 34,7 C 25,6 C 32,6 C 35,2 C 35,2 C 0,5 C 38 % 43 % 13 % 1006,8 hPa 0,0 l/m 4,3 km/h (1 Bft) O-NO 67 0 min 0,1 UV-I 18,3 C 35,2 C 5,6 km/h (1 Bft)
12.07.2010 19:30 34,3 C 25,6 C 32,3 C 34,7 C 34,7 C 0,4 C 38 % 43 % 11 % 1006,8 hPa 0,0 l/m 4,3 km/h (1 Bft) O 90 0 min 0,1 UV-I 17,9 C 34,7 C 5,3 km/h (1 Bft)
12.07.2010 19:35 33,8 C 25,6 C 32,1 C 34,2 C 34,2 C 0,4 C 39 % 44 % 11 % 1006,8 hPa 0,0 l/m 4,5 km/h (1 Bft) O-NO 67 0 min 0,1 UV-I 17,9 C 34,2 C 4,2 km/h (1 Bft)
12.07.2010 19:40 33,4 C 25,6 C 31,7 C 33,3 C 33,2 C 0,0 C 40 % 45 % 0 % 1006,6 hPa 0,0 l/m 4,7 km/h (1 Bft) O-NO 67 0 min 0,0 UV-I 17,9 C 33,2 C 4,0 km/h (1 Bft)
12.07.2010 19:45 33,0 C 25,7 C 31,5 C 32,8 C 32,4 C 0,0 C 41 % 46 % 0 % 1006,6 hPa 0,0 l/m 4,5 km/h (1 Bft) O-NO 67 0 min 0,0 UV-I 18,0 C 32,4 C 5,6 km/h (1 Bft)
12.07.2010 19:50 32,8 C 25,7 C 31,3 C 32,4 C 31,7 C 0,0 C 42 % 46 % 0 % 1006,6 hPa 0,0 l/m 4,0 km/h (1 Bft) O-NO 67 0 min 0,0 UV-I 18,2 C 31,7 C 5,1 km/h (1 Bft)
12.07.2010 19:55 32,5 C 25,6 C 31,0 C 32,1 C 31,3 C 0,0 C 43 % 47 % 0 % 1006,6 hPa 0,0 l/m 4,2 km/h (1 Bft) O-NO 67 0 min 0,0 UV-I 18,3 C 31,3 C 3,4 km/h (1 Bft)
12.07.2010 20:00 32,3 C 25,6 C 30,7 C 31,8 C 30,8 C 0,0 C 44 % 49 % 0 % 1006,9 hPa 0,0 l/m 4,5 km/h (1 Bft) O-NO 67 0 min 0,0 UV-I 18,5 C 30,8 C 3,9 km/h (1 Bft)
12.07.2010 20:07 31,9 C 25,6 C 30,7 C 31,4 C 30,5 C 0,0 C 45 % 49 % 0 % 1006,9 hPa 0,0 l/m 4,3 km/h (1 Bft) N 0 0 min 0,0 UV-I 18,5 C 30,5 C 3,1 km/h (1 Bft)
12.07.2010 20:10 31,7 C 25,6 C 30,7 C 31,1 C 30,0 C 0,0 C 45 % 49 % 0 % 1006,9 hPa 0,0 l/m 4,0 km/h (1 Bft) O-NO 67 0 min 0,0 UV-I 18,3 C 30,0 C 2,6 km/h (1 Bft)
12.07.2010 20:15 31,5 C 25,6 C 30,7 C 30,9 C 29,8 C 0,0 C 46 % 49 % 0 % 1006,9 hPa 0,0 l/m 3,2 km/h (1 Bft) O-NO 67 0 min 0,0 UV-I 18,4 C 29,8 C 2,6 km/h (1 Bft)
12.07.2010 20:20 31,3 C 25,6 C 30,7 C 30,6 C 29,3 C 0,0 C 46 % 49 % 0 % 1007,0 hPa 0,0 l/m 1,4 km/h (1 Bft) O-NO 67 0 min 0,0 UV-I 18,3 C 29,3 C 0,0 km/h (0 Bft)
12.07.2010 20:25 31,3 C 25,6 C 30,7 C 30,5 C 29,0 C 0,0 C 47 % 49 % 0 % 1007,0 hPa 0,0 l/m 0,5 km/h (0 Bft) S-SO 157 0 min 0,0 UV-I 18,6 C 29,0 C 0,0 km/h (0 Bft)
12.07.2010 20:30 31,2 C 25,6 C 29,2 C 30,4 C 28,7 C 0,0 C 48 % 54 % 0 % 1007,0 hPa 0,0 l/m 0,0 km/h (0 Bft) S 180 0 min 0,0 UV-I 18,9 C 28,7 C 0,0 km/h (0 Bft)
12.07.2010 20:35 31,1 C 25,6 C 29,0 C 30,2 C 28,4 C 0,0 C 48 % 55 % 0 % 1007,0 hPa 0,0 l/m 0,0 km/h (0 Bft) S 180 0 min 0,0 UV-I 18,8 C 28,4 C 0,0 km/h (0 Bft)
12.07.2010 20:40 30,8 C 25,6 C 28,5 C 29,9 C 28,1 C 0,0 C 49 % 56 % 0 % 1006,9 hPa 0,0 l/m 0,0 km/h (0 Bft) S 180 0 min 0,0 UV-I 18,8 C 28,1 C 0,0 km/h (0 Bft)
12.07.2010 20:45 30,7 C 25,7 C 28,5 C 29,7 C 27,8 C 0,0 C 49 % 55 % 0 % 1006,9 hPa 0,0 l/m 0,0 km/h (0 Bft) S 180 0 min 0,0 UV-I 18,7 C 27,8 C 0,0 km/h (0 Bft)
12.07.2010 20:50 30,6 C 25,7 C 28,1 C 29,6 C 27,5 C 0,0 C 50 % 57 % 0 % 1006,9 hPa 0,0 l/m 0,0 km/h (0 Bft) S 180 0 min 0,0 UV-I 19,0 C 27,5 C 0,0 km/h (0 Bft)
12.07.2010 20:55 30,5 C 25,7 C 27,9 C 29,4 C 27,2 C 0,0 C 50 % 59 % 0 % 1006,9 hPa 0,0 l/m 0,0 km/h (0 Bft) S 180 0 min 0,0 UV-I 18,9 C 27,2 C 0,0 km/h (0 Bft)
12.07.2010 21:00 30,5 C 25,6 C 27,8 C 29,3 C 26,9 C 0,0 C 53 % 61 % 0 % 1006,7 hPa 0,0 l/m 0,3 km/h (0 Bft) W-SW 247 0 min 0,0 UV-I 19,8 C 26,9 C 2,6 km/h (1 Bft)
12.07.2010 21:07 30,3 C 25,6 C 27,6 C 29,1 C 26,7 C 0,0 C 53 % 61 % 0 % 1006,7 hPa 0,0 l/m 0,5 km/h (0 Bft) N 0 0 min 0,0 UV-I 19,6 C 26,7 C 0,0 km/h (0 Bft)
12.07.2010 21:10 30,1 C 25,6 C 27,4 C 28,9 C 26,4 C 0,0 C 54 % 61 % 0 % 1006,7 hPa 0,0 l/m 0,3 km/h (0 Bft) W-SW 247 0 min 0,0 UV-I 19,7 C 26,4 C 0,0 km/h (0 Bft)
12.07.2010 21:15 29,9 C 25,6 C 27,3 C 28,7 C 26,2 C 0,0 C 54 % 62 % 0 % 1006,7 hPa 0,0 l/m 0,0 km/h (0 Bft) W-SW 247 0 min 0,0 UV-I 19,6 C 26,2 C 0,0 km/h (0 Bft)
12.07.2010 21:20 29,7 C 25,6 C 27,3 C 28,4 C 25,9 C 0,0 C 54 % 62 % 0 % 1006,9 hPa 0,0 l/m 0,0 km/h (0 Bft) W-SW 247 0 min 0,0 UV-I 19,4 C 25,9 C 0,0 km/h (0 Bft)
12.07.2010 21:25 29,6 C 25,6 C 27,3 C 28,3 C 25,8 C 0,0 C 54 % 62 % 0 % 1006,9 hPa 0,0 l/m 0,0 km/h (0 Bft) W-SW 247 0 min 0,0 UV-I 19,3 C 25,8 C 0,0 km/h (0 Bft)
12.07.2010 21:30 29,5 C 25,6 C 26,8 C 28,2 C 25,5 C 0,0 C 57 % 65 % 0 % 1006,9 hPa 0,0 l/m 0,0 km/h (0 Bft) W-SW 247 0 min 0,1 UV-I 20,1 C 25,5 C 0,0 km/h (0 Bft)
12.07.2010 21:35 29,5 C 25,6 C 26,6 C 28,1 C 25,3 C 0,0 C 58 % 66 % 0 % 1006,9 hPa 0,0 l/m 0,0 km/h (0 Bft) W-SW 247 0 min 0,1 UV-I 20,3 C 25,3 C 0,0 km/h (0 Bft)
12.07.2010 21:40 29,2 C 25,6 C 26,4 C 27,9 C 25,3 C 0,0 C 57 % 66 % 0 % 1007,2 hPa 0,0 l/m 0,0 km/h (0 Bft) W-SW 247 0 min 0,1 UV-I 19,8 C 25,3 C 0,0 km/h (0 Bft)
12.07.2010 21:45 29,0 C 25,6 C 26,4 C 27,8 C 25,3 C 0,0 C 56 % 65 % 0 % 1007,2 hPa 0,0 l/m 0,0 km/h (0 Bft) W-SW 247 0 min 0,2 UV-I 19,3 C 25,3 C 0,0 km/h (0 Bft)
12.07.2010 21:50 28,7 C 25,5 C 26,4 C 27,6 C 25,3 C 0,0 C 56 % 65 % 0 % 1007,2 hPa 0,0 l/m 0,0 km/h (0 Bft) W-SW 247 0 min 0,2 UV-I 19,0 C 25,3 C 0,0 km/h (0 Bft)
12.07.2010 21:55 28,7 C 25,5 C 26,4 C 27,6 C 25,3 C 0,0 C 57 % 65 % 0 % 1007,2 hPa 0,0 l/m 0,0 km/h (0 Bft) W-SW 247 0 min 0,2 UV-I 19,3 C 25,3 C 0,0 km/h (0 Bft)
12.07.2010 22:00 28,7 C 25,5 C 26,4 C 27,5 C 25,2 C 0,0 C 57 % 65 % 0 % 1006,8 hPa 0,0 l/m 0,0 km/h (0 Bft) W-SW 247 0 min 0,1 UV-I 19,3 C 25,2 C 0,0 km/h (0 Bft)
12.07.2010 22:07 28,7 C 25,6 C 26,4 C 27,5 C 25,1 C 0,0 C 59 % 65 % 0 % 1006,8 hPa 0,0 l/m 0,3 km/h (0 Bft) N 0 0 min 0,1 UV-I 19,9 C 25,1 C 1,8 km/h (1 Bft)
12.07.2010 22:10 28,5 C 25,6 C 26,4 C 27,3 C 24,8 C 0,0 C 61 % 65 % 0 % 1006,8 hPa 0,0 l/m 0,6 km/h (0 Bft) W-NW 292 0 min 0,1 UV-I 20,2 C 24,8 C 0,0 km/h (0 Bft)
12.07.2010 22:15 28,4 C 25,6 C 26,4 C 27,2 C 24,7 C 0,0 C 61 % 65 % 0 % 1006,8 hPa 0,0 l/m 0,5 km/h (0 Bft) W-NW 292 0 min 0,1 UV-I 20,1 C 24,7 C 0,0 km/h (0 Bft)
12.07.2010 22:20 28,3 C 25,6 C 26,4 C 27,1 C 24,6 C 0,0 C 61 % 65 % 0 % 1006,9 hPa 0,0 l/m 0,0 km/h (0 Bft) W-NW 292 0 min 0,1 UV-I 20,0 C 24,6 C 0,0 km/h (0 Bft)
12.07.2010 22:26 28,3 C 25,6 C 26,4 C 27,0 C 24,5 C 0,0 C 62 % 65 % 0 % 1006,9 hPa 0,0 l/m 0,2 km/h (0 Bft) W-SW 247 0 min 0,2 UV-I 20,3 C 24,5 C 0,0 km/h (0 Bft)
12.07.2010 22:30 28,3 C 25,6 C 26,4 C 27,0 C 24,3 C 0,0 C 63 % 65 % 0 % 1006,9 hPa 0,0 l/m 0,6 km/h (0 Bft) SW 225 0 min 0,3 UV-I 20,6 C 24,3 C 3,9 km/h (1 Bft)
12.07.2010 22:35 28,0 C 25,6 C 26,4 C 26,8 C 24,3 C 0,0 C 63 % 65 % 0 % 1006,9 hPa 0,0 l/m 2,1 km/h (1 Bft) S 180 0 min 0,4 UV-I 20,3 C 24,3 C 2,3 km/h (1 Bft)
12.07.2010 22:40 27,4 C 25,5 C 26,4 C 26,3 C 24,2 C 0,0 C 62 % 65 % 0 % 1007,6 hPa 0,0 l/m 2,4 km/h (1 Bft) N-NO 22 0 min 0,3 UV-I 19,5 C 24,2 C 1,9 km/h (1 Bft)
12.07.2010 22:45 27,2 C 25,5 C 26,4 C 26,2 C 24,3 C 0,0 C 62 % 65 % 0 % 1007,6 hPa 0,0 l/m 1,8 km/h (1 Bft) O-NO 67 0 min 0,3 UV-I 19,3 C 24,3 C 2,9 km/h (1 Bft)
12.07.2010 22:50 27,3 C 25,5 C 26,4 C 26,4 C 24,6 C 0,0 C 62 % 65 % 0 % 1007,6 hPa 0,0 l/m 1,8 km/h (1 Bft) W-SW 247 0 min 0,3 UV-I 19,4 C 24,6 C 5,0 km/h (1 Bft)
12.07.2010 22:55 27,4 C 25,5 C 26,4 C 26,6 C 25,0 C 0,0 C 60 % 65 % 0 % 1007,6 hPa 0,0 l/m 2,3 km/h (1 Bft) S-SO 157 0 min 0,3 UV-I 18,9 C 25,0 C 3,9 km/h (1 Bft)
12.07.2010 23:00 27,5 C 25,5 C 26,4 C 26,7 C 25,1 C 0,0 C 59 % 65 % 0 % 1007,4 hPa 0,0 l/m 1,6 km/h (1 Bft) O-NO 67 0 min 0,3 UV-I 18,8 C 25,1 C 0,0 km/h (0 Bft)
12.07.2010 23:06 27,5 C 25,5 C 26,4 C 26,7 C 25,1 C 0,0 C 60 % 65 % 0 % 1007,4 hPa 0,0 l/m 0,6 km/h (0 Bft) N 0 0 min 0,2 UV-I 19,0 C 25,1 C 4,0 km/h (1 Bft)
12.07.2010 23:10 27,5 C 25,5 C 26,4 C 26,8 C 25,4 C 0,0 C 58 % 65 % 0 % 1007,4 hPa 0,0 l/m 3,2 km/h (1 Bft) SW 225 0 min 0,3 UV-I 18,5 C 25,4 C 8,2 km/h (2 Bft)
12.07.2010 23:15 27,6 C 25,5 C 26,4 C 27,0 C 25,7 C 0,0 C 58 % 65 % 0 % 1007,4 hPa 0,0 l/m 6,1 km/h (2 Bft) S-SW 202 0 min 0,3 UV-I 18,6 C 25,7 C 8,4 km/h (2 Bft)
12.07.2010 23:20 27,6 C 25,5 C 26,3 C 27,1 C 26,1 C 0,0 C 60 % 66 % 0 % 1008,0 hPa 0,0 l/m 10,9 km/h (2 Bft) SW 225 0 min 0,3 UV-I 19,1 C 26,1 C 10,9 km/h (2 Bft)
12.07.2010 23:25 27,5 C 25,5 C 26,2 C 27,0 C 26,1 C 0,0 C 61 % 66 % 0 % 1008,0 hPa 0,0 l/m 11,9 km/h (2 Bft) W-SW 247 0 min 0,3 UV-I 19,3 C 26,1 C 24,9 km/h (4 Bft)
12.07.2010 23:30 27,4 C 25,4 C 26,0 C 26,9 C 25,8 C 0,0 C 61 % 67 % 0 % 1008,0 hPa 0,0 l/m 10,9 km/h (2 Bft) SW 225 0 min 0,2 UV-I 19,2 C 25,8 C 12,6 km/h (3 Bft)
12.07.2010 23:35 27,3 C 25,4 C 25,8 C 26,7 C 25,6 C 0,0 C 62 % 67 % 0 % 1008,0 hPa 0,0 l/m 11,9 km/h (2 Bft) SW 225 0 min 0,2 UV-I 19,4 C 25,6 C 22,9 km/h (4 Bft)
12.07.2010 23:40 27,0 C 25,4 C 25,7 C 26,4 C 25,3 C 0,0 C 62 % 68 % 0 % 1008,2 hPa 0,0 l/m 11,7 km/h (2 Bft) S-SW 202 0 min 0,2 UV-I 19,1 C 25,3 C 9,7 km/h (2 Bft)
12.07.2010 23:45 26,9 C 25,4 C 25,5 C 26,3 C 25,2 C 0,0 C 62 % 68 % 0 % 1008,2 hPa 0,0 l/m 12,1 km/h (2 Bft) S 180 0 min 0,2 UV-I 19,0 C 25,2 C 25,3 km/h (4 Bft)
12.07.2010 23:50 26,8 C 25,4 C 25,4 C 26,2 C 25,0 C 0,0 C 62 % 68 % 0 % 1008,2 hPa 0,0 l/m 14,6 km/h (3 Bft) W-SW 247 0 min 0,2 UV-I 18,9 C 25,0 C 15,8 km/h (3 Bft)
12.07.2010 23:55 26,7 C 25,3 C 25,2 C 26,1 C 24,8 C 0,0 C 63 % 68 % 0 % 1008,2 hPa 0,0 l/m 15,3 km/h (3 Bft) SW 225 0 min 0,2 UV-I 19,1 C 24,8 C 28,6 km/h (4 Bft)
_ Min-Zeit 05:30 09:50 05:10 05:25 05:10 00:00 18:00 00:00 00:00 19:40 - 01:30 - - - 19:40 05:30 05:10 00:10
Minimum _ 20,0 C 23,0 C 18,0 C 18,9 C 16,5 C 0,0 C 34 % 34 % 0 % 1006,6 hPa - 0,0 km/h (0 Bft) - - - 0,0 UV-I 15,8 C 16,5 C 0,0 km/h (0 Bft)
_ Max-Zeit 17:00 19:45 16:30 15:00 15:00 10:25 05:15 05:15 07:45 00:00 00:00 23:55 - - 10:10 13:30 09:40 15:00 23:55
Maximum _ 36,1 C 25,7 C 36,2 C 41,1 C 41,1 C 10,1 C 78 % 87 % 100 % 1013,6 hPa 0,0 l/m 15,3 km/h
SW (3 Bft)
- - 10 min 4,5 UV-I 20,6 C 41,1 C 28,6 km/h
SW (4 Bft)
Durchschnitt _ 28,4 C 24,3 C 27,4 C 30,6 C 29,5 C 2,7 C 57 % 59 % 44 % 1010,5 hPa #0,0 l/m 1,9 km/h (1 Bft) O-NO - #9:30 h 1,5 UV-I 18,3 C 29,5 C 2,8 km/h (1 Bft)
2010 www.wetterstation-wechselburg.de